STAR ONE D1 (41904 NORAD) Tracking and Keplerian Element Data

This shows tracking and keplerian element data for the satellite.

Feedback or suggestion? Click here.




ElementValue
Catalog41904
NameSTAR ONE D1
Epoch Orbit2977
Epoch Day34.82275809
Epoch Year2025
RAAN58.0307
Inclination0.0151
Eccentricity0.0001931
Argument of Perigee249.8438
Mean Anonmoly38.5211
Mean Motion1.00274032
Decay Rate-2.06E-06
L11 41904U 16082B 25034.82275809 -.00000206 00000+0 00000+0 0 9997
L22 41904 0.0151 58.0307 0001931 249.8438 38.5211 1.00274032 29776



Live tracking and technical data element details for STAR ONE D1 (NORAD 41904). STAR ONE D1 can be tracked NOW for your location showing map with azimuth and elevation plus other details from your city location.







IsCatalogInMostPopularTable: catalog: 41904, numindb: 748
Update: records affected: 1



GetName: 41904 STAR ONE D1

Hit Count: updated at: Wed, 30 Apr 2025 17:04:48 GMT